Temp
59 56 54 57 57 57 55 52 52 56 61 55 58 59 63 68 64 67 68 67 68 66 69 70 70 69 68 68 66 66 63 58 55 55 58 57 57 58 58 59 59 58 59 57
55 50 56 57 55 53 53 51 52 55 58 56 58 58 63 65 67 68 65 65 62 63 65 65 66 67 66 66 66 65 63 58 56 56 58 57 56 57 57 56 56 57 56 57
51 55 57 56 53 50 50 49 50 51 55 58 55 57 57 64 63 65 64 61 59 57 58 61 62 63 65 64 63 61 59 55 55 55 52 52 53 53 52 52 54 55 55 55
52 58 55 54 52 53 47 55 54 51 50 47 54 46 56 61 62 62 58 56 54 54 56 57 58 59 60 60 60 58 55 53 52 52 52 50 52 50 54 53 52 50 50 52
53 54 54 53 54 55 53 57 54 53 51 47 49 47 52 57 58 59 58 55 53 51 50 51 53 54 57 57 55 54 53 52 50 49 50 47 45 44 44 45 49 47 47 48
54 58 58 58 58 57 59 56 52 48 48 41 50 48 50 53 52 55 57 56 55 55 53 50 51 53 53 56 54 51 50 48 49 49 48 48 46 44 42 41 43 45 46 45
51 53 57 58 55 56 54 50 42 40 39 39 45 44 51 52 53 53 53 55 55 54 55 52 50 51 52 52 51 51 50 49 50 49 49 48 47 45 44 43 43 42 43 43
44 43 53 57 55 52 50 50 41 34 36 41 44 41 50 52 53 54 54 54 55 56 55 53 53 51 51 51 53 53 52 51 50 50 51 50 51 46 46 44 43 43 44 45
41 42 53 55 56 56 49 45 51 42 40 37 44 47 50 52 52 52 52 53 54 55 55 55 54 53 52 53 55 56 55 53 52 52 54 51 49 48 47 46 46 46 45 45
46 40 48 52 56 55 53 55 42 42 32 31 41 43 44 46 49 51 51 53 55 57 58 58 56 55 55 56 57 58 58 59 58 55 53 51 50 50 49 47 46 46 45 45
48 44 43 49 47 46 48 46 46 44 40 33 32 38 47 46 48 48 51 53 55 56 58 59 58 58 57 57 58 58 57 57 57 56 54 52 49 49 47 44 44 43 45 45
48 42 36 42 50 50 48 46 45 36 35 36 33 33 50 49 51 52 53 55 56 57 58 59 61 58 56 55 57 57 56 55 54 53 52 51 50 49 48 47 46 44 44 45
47 40 34 37 42 46 43 44 44 42 39 32 27 33 49 52 52 54 54 55 56 55 55 56 57 54 54 52 51 54 55 55 54 52 51 49 48 47 47 47 48 44 43 42
50 41 36 31 37 41 38 41 44 39 29 32 34 35 43 47 47 51 52 53 54 54 54 54 54 50 47 51 50 50 51 51 51 51 50 48 49 48 47 48 48 44 42 41
45 33 38 40 42 41 40 39 40 37 38 32 37 38 44 47 49 50 51 51 52 51 52 52 51 52 52 50 51 52 51 51 51 50 50 50 50 50 50 47 46 43 41 41
44 31 37 34 40 40 36 39 39 39 39 39 39 39 49 51 52 50 50 51 50 50 50 50 51 51 52 53 53 52 52 51 51 51 50 51 49 48 47 46 43 41 40 39
35 32 32 28 37 35 28 35 38 39 42 41 35 43 49 46 48 49 51 52 49 49 49 50 51 51 52 53 52 52 53 52 50 50 50 50 49 47 45 46 43 41 39 38
35 35 34 29 33 20 39 44 44 39 42 43 43 44 46 46 48 50 51 50 50 49 50 51 52 52 53 54 53 53 53 52 49 49 48 47 47 45 43 42 41 41 39 37
42 37 30 26 27 34 38 41 39 36 37 38 37 40 43 45 46 48 49 50 50 51 52 52 52 53 53 52 53 52 52 50 48 46 46 45 44 43 42 40 38 38 36 36
38 38 31 29 23 22 35 39 42 40 30 39 39 37 37 39 34 41 47 48 50 52 52 52 54 52 51 51 50 49 48 48 45 45 46 45 44 43 42 39 38 36 36 34
29 30 27 28 25 31 38 40 41 27 31 41 41 40 37 34 37 42 45 47 50 52 53 53 52 52 52 50 47 40 35 36 40 44 46 44 45 43 42 39 37 36 35 33
31 28 26 29 24 22 41 40 33 39 43 44 44 43 37 38 38 43 46 48 49 50 52 52 51 51 50 49 44 37 35 36 36 36 41 44 43 44 42 39 37 35 34 32
26 33 30 29 31 37 41 41 44 45 42 42 43 45 41 41 40 42 45 46 48 50 50 51 50 49 50 47 45 39 37 36 35 36 35 36 38 39 39 36 34 33 33 32
34 37 32 30 38 38 41 44 43 44 44 46 47 47 46 42 45 45 47 49 49 50 49 50 49 48 47 46 43 38 38 41 40 38 37 37 35 35 34 35 34 33 33 32
36 36 34 34 38 40 42 44 45 46 47 46 48 47 46 46 42 43 44 47 49 49 49 48 47 46 47 46 45 40 39 39 38 39 39 39 38 37 35 34 34 33 34 35
37 34 30 28 39 38 39 44 46 44 44 46 45 45 46 45 44 46 45 47 48 48 48 47 47 46 47 47 44 43 41 39 40 39 38 36 35 35 35 34 33 34 34 35
MSLP
1011.48 1011.45 1011.29 1011.38 1011.60 1011.60 1011.53 1011.26 1010.66 1009.90 1009.45 1009.33 1007.97 1007.59 1007.21 1006.76 1007.17 1007.01 1007.16 1007.69 1008.12 1008.28 1008.22 1008.14 1007.94 1008.41 1009.07 1009.39 1009.85 1010.38 1011.42 1012.55 1013.30 1014.00 1014.76 1015.43 1015.66 1016.17 1016.35 1016.50 1017.07 1017.23 1017.51 1018.09
1012.10 1011.50 1011.40 1011.66 1011.77 1011.75 1011.70 1011.52 1010.74 1010.21 1009.51 1009.37 1008.16 1007.18 1006.73 1006.31 1006.22 1006.62 1007.57 1008.16 1008.64 1008.86 1008.70 1008.30 1008.04 1008.19 1008.69 1009.29 1009.92 1010.58 1011.34 1012.43 1013.10 1013.56 1014.17 1015.12 1015.90 1016.16 1016.31 1016.88 1017.42 1017.60 1017.61 1017.78
1011.90 1011.73 1011.61 1011.73 1011.84 1011.97 1011.84 1011.60 1011.07 1010.66 1009.97 1009.29 1008.57 1006.55 1006.40 1006.07 1006.24 1006.87 1007.98 1008.87 1009.52 1009.70 1009.52 1009.12 1008.66 1008.52 1008.69 1009.23 1009.98 1010.70 1011.44 1012.45 1013.01 1013.51 1014.45 1015.27 1016.13 1016.86 1017.08 1017.22 1017.30 1017.11 1017.55 1018.08
1011.87 1011.56 1011.51 1011.67 1011.72 1011.85 1011.74 1011.09 1011.17 1011.01 1010.77 1009.90 1009.62 1006.67 1006.54 1006.43 1006.60 1007.19 1008.57 1009.60 1010.44 1010.73 1010.70 1010.34 1009.96 1009.76 1009.83 1010.24 1010.77 1011.28 1012.10 1012.85 1013.72 1014.20 1014.45 1014.60 1015.46 1016.49 1017.11 1017.55 1017.73 1017.73 1017.74 1018.27
1011.21 1011.26 1011.25 1011.26 1011.01 1011.24 1011.05 1010.97 1011.21 1011.21 1011.15 1010.84 1010.53 1009.64 1007.05 1007.42 1007.45 1008.06 1008.99 1010.13 1010.97 1011.71 1011.86 1011.38 1011.34 1011.32 1011.30 1011.38 1011.65 1012.11 1012.63 1013.45 1014.06 1014.64 1015.23 1015.62 1016.23 1017.17 1017.65 1018.21 1019.00 1018.91 1018.15 1018.34
1011.46 1011.32 1011.15 1010.69 1010.30 1010.37 1010.45 1010.67 1010.96 1011.26 1011.06 1010.30 1009.39 1009.59 1007.20 1008.29 1008.75 1008.86 1009.54 1010.17 1010.50 1010.76 1011.41 1011.96 1012.02 1011.94 1011.90 1012.05 1012.38 1012.86 1013.28 1013.88 1014.28 1014.46 1014.80 1015.34 1015.72 1017.15 1017.26 1018.10 1018.63 1018.88 1018.98 1018.43
1011.64 1011.34 1010.94 1010.86 1010.90 1010.72 1010.84 1011.08 1011.01 1010.78 1010.88 1009.91 1009.87 1009.77 1008.09 1008.77 1009.18 1009.60 1009.94 1010.41 1010.91 1011.37 1011.75 1012.19 1012.42 1012.22 1012.29 1012.54 1012.65 1012.71 1012.83 1013.20 1013.35 1013.72 1014.03 1014.59 1014.95 1016.34 1015.69 1017.69 1018.72 1018.90 1018.73 1018.50
1011.40 1011.32 1010.97 1010.89 1010.91 1011.07 1011.32 1011.42 1011.50 1010.74 1010.62 1010.07 1010.14 1008.94 1008.62 1009.46 1009.80 1009.94 1010.27 1010.79 1011.06 1011.23 1011.66 1012.00 1012.45 1012.75 1012.80 1012.75 1012.67 1012.12 1012.01 1012.29 1012.36 1012.54 1012.33 1012.64 1012.40 1014.56 1014.82 1015.51 1017.52 1017.31 1017.75 1018.29
1011.66 1011.36 1011.09 1010.83 1010.80 1011.15 1011.53 1011.85 1011.90 1011.63 1011.58 1011.01 1009.47 1009.03 1009.45 1009.74 1010.04 1010.37 1010.67 1010.76 1010.83 1010.94 1011.15 1011.45 1011.78 1012.01 1012.39 1012.71 1012.31 1011.49 1011.09 1011.34 1011.39 1011.24 1011.29 1013.03 1013.66 1014.36 1014.63 1015.11 1015.84 1016.45 1017.17 1017.84
1011.98 1011.86 1011.38 1011.22 1011.17 1011.25 1011.32 1011.70 1012.41 1012.82 1012.46 1011.36 1009.85 1009.60 1009.21 1009.68 1010.27 1010.35 1010.44 1010.53 1010.39 1010.39 1010.45 1010.40 1010.42 1010.79 1010.98 1011.03 1011.01 1011.36 1011.70 1011.38 1010.68 1010.99 1011.72 1012.30 1013.45 1013.22 1013.94 1014.94 1015.76 1016.44 1016.60 1017.68
1012.89 1012.63 1012.51 1011.89 1011.79 1011.87 1012.12 1012.14 1012.50 1013.22 1013.40 1012.85 1011.76 1009.57 1010.17 1010.38 1010.56 1010.44 1010.26 1010.01 1009.82 1009.58 1009.44 1009.27 1009.00 1009.14 1009.61 1010.05 1010.29 1010.23 1010.52 1010.66 1010.88 1010.81 1011.39 1011.89 1012.62 1012.86 1013.50 1014.01 1015.49 1016.20 1017.08 1017.67
1013.21 1013.24 1012.70 1012.34 1012.46 1012.35 1012.34 1012.59 1013.04 1013.36 1013.84 1013.86 1013.94 1009.26 1010.15 1010.41 1010.44 1010.23 1009.79 1009.42 1009.15 1008.96 1008.72 1008.46 1008.22 1008.72 1009.30 1009.65 1009.91 1010.19 1010.32 1010.19 1010.52 1010.87 1011.00 1011.39 1012.22 1012.69 1012.87 1013.46 1014.62 1015.92 1016.43 1017.49
1013.22 1013.43 1013.20 1012.66 1013.13 1013.04 1012.65 1012.82 1013.49 1014.61 1015.06 1014.64 1014.33 1010.29 1010.55 1010.43 1009.95 1009.46 1009.08 1008.90 1008.96 1008.77 1008.40 1008.11 1008.06 1008.72 1009.05 1009.50 1009.59 1009.72 1009.82 1009.70 1010.01 1010.29 1010.86 1011.34 1011.53 1011.69 1012.41 1013.36 1014.24 1015.30 1015.84 1016.60
1013.29 1013.54 1013.35 1013.11 1012.73 1013.13 1013.61 1013.24 1013.59 1014.49 1015.02 1014.15 1012.72 1011.88 1009.74 1010.39 1009.86 1009.34 1009.00 1008.90 1008.77 1008.56 1008.35 1008.15 1008.20 1008.64 1009.00 1009.31 1009.43 1009.63 1009.53 1009.54 1009.56 1009.75 1010.17 1010.52 1010.79 1011.09 1011.98 1013.17 1014.02 1014.53 1015.41 1016.67
1014.14 1014.23 1014.06 1013.88 1013.23 1013.00 1012.79 1013.09 1013.40 1013.68 1013.40 1013.50 1011.24 1011.30 1010.42 1009.69 1009.38 1008.99 1008.72 1008.58 1008.56 1008.46 1008.52 1008.55 1008.55 1008.43 1008.43 1008.42 1008.46 1008.75 1008.84 1008.86 1009.01 1009.22 1009.48 1009.50 1010.03 1010.80 1011.86 1012.54 1013.36 1014.37 1014.92 1015.86
1015.01 1014.94 1014.55 1014.14 1013.56 1012.64 1012.58 1012.83 1012.67 1012.68 1012.04 1011.85 1011.30 1010.07 1009.84 1009.51 1009.35 1008.89 1008.35 1008.15 1008.09 1008.40 1008.72 1008.80 1008.69 1008.39 1008.19 1008.16 1008.28 1008.34 1008.46 1008.52 1008.72 1008.63 1008.69 1009.15 1009.87 1010.60 1011.21 1011.89 1013.05 1013.77 1014.65 1015.52
1015.64 1015.48 1015.05 1014.12 1013.77 1013.06 1011.83 1010.99 1011.09 1011.28 1010.92 1011.08 1010.66 1009.76 1009.65 1009.71 1009.27 1008.58 1008.12 1007.89 1007.98 1008.13 1008.37 1008.42 1008.41 1008.28 1008.04 1007.85 1007.89 1007.81 1007.93 1008.11 1008.21 1008.25 1008.42 1008.80 1009.31 1009.93 1010.61 1011.36 1012.43 1013.52 1014.25 1015.33
1015.19 1015.17 1015.10 1014.40 1014.46 1012.79 1010.61 1010.82 1010.79 1011.14 1010.69 1010.55 1010.65 1010.36 1010.15 1010.06 1009.34 1008.79 1008.31 1007.95 1007.97 1007.95 1007.95 1008.16 1008.17 1008.06 1007.93 1007.84 1007.68 1007.47 1007.46 1007.57 1007.74 1007.89 1008.10 1008.49 1009.05 1009.58 1010.44 1011.21 1012.07 1013.03 1014.05 1014.76
1014.63 1015.09 1015.25 1014.31 1013.86 1011.73 1010.98 1010.80 1011.14 1011.22 1011.09 1011.62 1011.40 1011.12 1010.87 1010.50 1009.79 1009.12 1008.71 1008.49 1008.41 1008.16 1008.00 1008.13 1008.24 1008.03 1007.87 1007.73 1007.44 1007.26 1007.18 1007.27 1007.40 1007.70 1008.17 1008.44 1008.83 1009.56 1010.36 1011.08 1011.92 1012.79 1013.57 1014.38
1014.54 1014.91 1015.31 1014.59 1013.84 1012.05 1010.83 1011.41 1011.65 1011.93 1011.40 1011.71 1011.72 1011.78 1011.78 1011.50 1010.59 1009.92 1009.31 1008.91 1008.56 1008.07 1007.93 1007.86 1007.83 1007.79 1007.65 1007.46 1007.40 1007.34 1007.37 1007.55 1007.53 1007.72 1008.15 1008.39 1008.72 1009.42 1010.22 1010.92 1011.63 1012.65 1013.50 1014.33
1014.66 1014.78 1014.39 1014.10 1013.65 1011.98 1011.51 1011.49 1011.68 1011.71 1011.68 1011.67 1011.78 1011.62 1011.79 1011.65 1011.50 1010.55 1009.81 1008.75 1008.39 1007.81 1007.50 1007.52 1007.58 1007.60 1007.55 1007.56 1007.71 1007.73 1007.83 1007.87 1008.01 1007.88 1008.23 1008.46 1008.67 1009.19 1009.97 1010.97 1011.84 1012.65 1013.61 1014.51
1013.64 1013.83 1014.02 1014.11 1013.52 1012.39 1011.88 1011.72 1011.86 1011.62 1011.40 1011.39 1011.25 1011.42 1011.57 1011.47 1011.14 1010.27 1009.56 1008.64 1007.76 1007.37 1007.23 1007.35 1007.42 1007.50 1007.58 1007.62 1007.87 1007.94 1008.11 1008.06 1008.12 1008.11 1008.42 1008.72 1008.70 1009.18 1009.96 1010.94 1011.85 1012.75 1013.50 1014.28
1013.86 1013.33 1013.67 1013.93 1012.39 1011.91 1011.92 1011.94 1011.62 1011.47 1011.15 1011.18 1010.94 1011.03 1010.98 1010.30 1010.24 1009.78 1008.70 1007.93 1007.37 1007.06 1006.94 1007.12 1007.31 1007.46 1007.37 1007.67 1007.98 1008.05 1008.43 1008.47 1008.27 1008.36 1008.71 1009.01 1009.13 1009.53 1010.29 1011.02 1011.78 1012.65 1013.39 1014.04
1013.44 1013.50 1013.38 1013.34 1011.64 1011.70 1011.13 1011.15 1010.82 1010.81 1010.74 1010.76 1010.52 1010.04 1009.90 1009.58 1009.02 1008.66 1008.11 1007.45 1007.00 1006.55 1006.56 1006.68 1007.00 1007.23 1007.41 1007.79 1008.00 1008.01 1008.50 1008.70 1008.49 1008.73 1009.07 1009.40 1009.58 1010.03 1010.65 1011.26 1011.83 1012.50 1013.13 1013.74
1013.13 1013.12 1012.41 1011.84 1011.32 1011.10 1010.59 1010.51 1010.32 1010.19 1010.20 1010.00 1009.78 1009.48 1008.97 1008.59 1008.43 1008.34 1007.93 1007.09 1006.55 1006.29 1006.35 1006.41 1006.61 1006.90 1007.31 1007.68 1007.85 1008.17 1008.46 1008.29 1008.42 1008.67 1009.09 1009.50 1009.81 1010.19 1010.89 1011.40 1011.72 1012.15 1012.62 1012.88
1012.55 1011.54 1011.89 1010.96 1010.69 1010.77 1010.07 1010.21 1010.10 1009.65 1009.35 1009.14 1008.90 1008.59 1008.51 1008.16 1007.49 1007.29 1006.85 1006.28 1006.08 1005.89 1006.02 1006.25 1006.48 1006.67 1006.99 1007.32 1007.71 1008.03 1008.30 1008.42 1008.35 1008.73 1009.07 1009.38 1009.79 1010.33 1010.91 1011.42 1011.96 1012.35 1012.63 1013.05
Wind_Speed
2 2 9 7 7 2 1 4 11 10 12 6 14 12 13 15 6 13 9 6 7 7 7 10 12 14 15 16 17 18 16 14 11 9 10 8 8 7 6 6 9 10 9 9
1 6 4 2 3 6 7 8 14 10 8 6 10 15 15 15 11 7 5 3 6 9 12 12 10 9 13 15 16 15 14 14 10 8 8 5 7 5 6 5 6 7 9 9
3 1 3 2 2 4 4 7 6 10 8 5 9 16 9 4 4 1 7 6 10 11 12 13 12 7 7 10 12 11 10 11 10 10 8 7 6 4 4 5 6 7 8 7
3 2 1 2 3 6 3 7 9 7 4 6 4 13 5 5 6 2 8 11 9 10 10 11 12 9 4 4 7 8 9 8 5 5 5 11 6 6 3 4 3 5 6 6
3 4 3 3 4 6 5 3 3 3 7 4 3 9 2 1 6 8 8 9 4 4 5 10 8 7 7 7 9 10 10 10 9 9 7 6 8 6 4 5 2 3 5 7
5 2 3 5 5 6 1 3 1 2 2 10 12 13 2 2 1 4 7 11 12 13 9 7 5 6 7 8 11 11 12 11 10 8 10 9 9 6 7 3 3 2 1 5
1 3 3 2 6 1 2 2 4 5 4 7 1 6 13 2 1 1 3 5 8 8 8 6 4 4 7 10 12 12 12 11 12 12 12 12 10 11 11 10 8 7 6 4
4 3 3 2 2 1 2 3 4 7 5 8 1 8 3 1 1 2 2 4 3 4 4 3 2 1 4 10 13 11 12 12 13 13 16 18 22 13 11 13 9 7 6 6
6 6 2 3 1 1 4 4 2 3 2 7 6 3 4 4 4 5 5 2 2 3 3 2 4 8 9 11 15 17 16 13 13 13 12 9 8 8 7 10 10 9 8 8
3 4 1 2 1 2 2 3 3 1 7 13 10 18 11 6 1 3 0 6 6 5 7 7 9 11 13 16 17 15 13 12 14 13 10 10 12 12 12 9 10 10 9 10
1 2 1 1 2 1 1 3 3 3 4 11 15 10 4 4 5 4 10 12 15 15 14 14 11 12 14 15 17 17 15 14 12 12 11 11 9 11 10 10 9 8 8 10
3 4 5 6 3 1 2 5 3 6 6 2 3 19 5 5 6 11 17 18 16 14 16 15 13 10 9 11 13 15 14 12 11 8 9 12 11 10 11 12 12 12 12 11
6 2 5 3 4 2 3 5 5 2 2 10 9 12 4 13 20 22 21 19 16 14 16 15 13 5 5 5 8 11 13 14 11 9 8 10 12 13 12 12 13 13 12 12
5 6 9 10 5 2 12 17 16 9 8 14 20 26 27 22 19 19 18 18 17 14 15 12 9 3 2 4 3 6 8 8 9 11 11 11 13 13 10 13 14 12 13 12
4 6 9 13 13 16 18 19 14 17 20 19 25 24 21 21 21 19 17 18 16 15 11 8 8 8 7 6 6 5 4 5 9 11 13 15 13 13 14 14 14 13 13 13
1 4 8 16 13 16 22 15 17 19 22 20 25 26 22 20 19 19 18 16 15 9 5 7 8 8 9 8 8 7 6 5 7 11 14 14 14 16 15 14 13 12 12 13
6 4 3 6 11 11 13 15 19 16 17 13 16 17 14 15 17 20 19 15 13 9 6 7 8 8 9 10 9 10 8 6 7 10 12 13 14 14 13 14 15 14 15 14
7 9 4 6 7 9 3 3 5 11 15 12 10 13 14 16 18 17 13 11 10 8 7 6 6 8 10 11 12 11 9 7 6 6 8 10 12 12 13 13 13 14 13 14
12 8 5 4 8 14 14 6 3 2 5 9 7 11 12 13 15 10 7 5 10 9 8 6 7 9 11 12 12 10 10 6 4 4 7 9 9 11 13 13 14 12 13 12
10 10 7 5 6 8 3 5 2 4 9 6 6 9 13 12 9 7 12 14 16 10 6 6 7 9 9 11 9 7 7 6 5 4 7 9 9 11 13 12 13 11 11 12
6 4 13 10 9 8 2 3 2 6 6 8 5 7 12 7 7 13 16 20 16 12 9 4 6 7 9 8 6 5 3 5 3 4 6 8 10 10 11 11 9 11 10 10
7 6 5 7 7 14 5 3 3 6 11 14 12 8 6 10 15 16 13 16 14 12 6 4 5 6 6 6 3 4 4 3 3 3 4 7 9 8 10 12 11 10 10 10
4 4 2 5 5 2 8 8 12 11 14 16 14 12 10 12 11 19 15 15 14 11 6 4 5 5 4 4 3 2 4 4 2 4 4 4 7 8 9 10 10 8 9 8
3 5 4 4 7 13 13 9 10 14 16 13 14 13 14 12 14 16 18 15 12 12 8 5 6 6 1 1 3 5 2 4 4 5 5 6 7 7 7 6 7 7 7 7
4 3 8 14 17 15 17 15 14 11 16 16 14 15 14 14 14 14 17 17 13 11 6 5 5 4 5 4 1 2 3 4 4 6 6 7 6 7 7 5 7 7 8 9
8 14 7 11 15 13 17 16 17 16 18 19 17 16 14 14 16 14 15 14 12 11 5 4 3 2 3 5 4 5 4 3 6 5 5 5 5 5 5 5 4 3 5 9
Wind_Direction
8 189 230 237 225 273 228 240 266 277 275 293 278 276 280 286 254 276 291 332 349 330 322 310 264 239 224 214 203 195 188 176 161 160 164 171 176 174 168 171 170 166 161 161
69 248 224 228 222 227 243 268 276 283 281 212 279 277 273 266 267 275 337 28 23 347 339 333 321 254 225 221 219 206 196 177 171 167 168 173 167 178 161 161 173 170 164 165
190 59 96 265 239 218 247 238 257 268 322 258 298 278 248 261 234 95 69 40 28 8 340 343 348 335 228 215 212 195 178 168 171 158 137 126 119 116 155 169 173 171 166 162
224 279 222 236 247 178 271 228 259 283 307 293 343 292 266 254 290 320 52 34 25 6 358 358 6 23 52 119 134 142 143 133 113 152 159 160 159 168 214 179 162 148 136 143
218 187 213 213 216 184 243 169 241 279 268 312 272 277 41 48 297 328 12 31 30 53 29 28 25 39 63 100 113 119 118 102 103 85 78 77 76 62 50 44 89 145 129 120
264 334 233 220 225 189 191 250 158 103 202 255 251 229 5 350 25 327 4 14 13 16 37 45 59 82 95 106 108 99 100 106 118 130 146 161 149 183 139 150 202 212 171 113
327 242 282 217 271 129 130 172 279 244 200 261 326 244 265 192 213 272 345 16 22 13 6 10 29 116 134 131 128 134 153 159 163 168 178 184 171 183 164 176 192 179 179 151
221 265 204 89 236 283 191 203 223 279 268 284 212 242 241 155 174 156 111 52 34 19 352 11 7 231 159 154 160 181 171 172 181 189 191 189 178 191 179 170 184 180 179 164
180 217 300 80 120 289 151 219 331 285 184 275 254 245 201 198 146 108 92 95 23 339 308 276 207 192 190 196 198 199 187 189 192 200 187 201 196 194 178 184 178 173 157 158
183 270 206 332 131 85 222 140 243 320 280 268 274 291 278 192 122 104 62 330 321 295 270 248 223 215 207 206 204 221 233 234 199 203 195 186 201 184 176 165 181 183 162 165
161 212 196 70 102 185 279 247 229 278 244 272 288 278 116 99 80 356 311 303 302 297 285 270 254 228 219 217 220 228 227 234 235 211 210 202 198 179 165 159 170 168 169 166
219 174 210 227 201 151 197 265 233 219 253 274 316 268 122 157 304 302 297 295 299 293 294 278 275 255 241 238 244 246 255 238 237 226 205 200 189 186 186 176 174 173 166 169
179 211 291 220 147 126 186 138 121 338 237 253 256 270 177 292 297 296 297 303 294 289 287 288 288 312 299 260 242 249 255 247 227 211 210 200 194 182 189 192 182 171 156 158
129 217 224 249 264 278 271 276 287 278 253 267 248 273 283 280 282 285 292 292 295 289 295 290 296 329 316 290 248 244 251 243 218 206 206 207 206 200 191 188 187 166 160 161
123 246 238 248 257 263 260 263 252 237 245 246 269 259 271 277 284 291 294 292 289 291 288 293 310 320 315 325 334 326 288 253 229 216 213 215 213 201 197 188 182 169 162 161
231 263 265 267 260 258 268 261 249 242 247 252 256 265 266 274 282 282 280 283 288 287 281 291 300 309 316 320 321 318 303 273 227 230 226 213 196 191 191 184 174 162 158 151
191 207 236 270 264 286 279 237 232 240 238 246 257 259 279 285 284 284 288 287 280 255 261 281 300 311 309 310 315 306 296 277 260 240 228 209 196 188 184 180 172 172 167 159
213 213 225 271 286 257 250 166 211 230 253 253 265 278 294 300 298 297 280 275 256 246 263 284 307 316 317 314 306 304 299 287 266 242 233 199 189 180 169 169 173 168 164 162
219 207 243 236 224 285 293 303 298 276 289 39 358 347 342 336 322 305 308 287 295 293 275 284 306 299 305 302 301 294 291 296 277 239 213 182 175 169 168 164 162 159 155 155
200 223 221 197 245 267 51 170 201 210 265 22 13 341 330 328 298 303 337 322 311 292 270 284 305 311 308 310 307 279 278 271 246 217 212 178 163 161 170 159 157 156 157 155
166 188 221 231 245 266 357 317 175 245 331 326 316 334 328 293 285 297 307 305 295 288 287 274 299 305 311 316 305 274 283 249 258 195 191 171 165 156 154 149 149 151 150 143
185 192 199 222 243 256 39 314 255 353 314 305 302 296 342 304 296 307 282 288 310 300 286 251 282 299 318 310 277 284 257 262 210 144 152 172 149 150 150 153 150 150 150 152
230 218 180 222 241 307 299 249 281 288 289 295 293 282 265 293 293 309 308 304 296 294 258 245 254 279 339 347 305 6 303 285 163 134 126 130 129 137 147 147 148 148 153 154
222 177 232 217 259 254 262 256 261 266 271 287 281 283 276 277 278 297 299 294 294 295 270 231 243 248 345 154 128 103 324 268 156 155 154 146 139 135 139 142 149 152 160 161
214 204 237 262 270 275 268 271 287 286 294 297 288 290 285 279 273 277 273 281 285 282 253 214 228 237 223 193 134 119 208 170 164 168 173 172 162 155 151 158 167 171 182 181
204 244 237 257 269 269 280 279 275 278 283 286 289 298 289 278 278 279 269 268 271 272 231 206 218 260 272 224 214 161 158 195 163 170 174 168 155 154 159 160 151 174 176 180